Regional Weather Roundup
Issued by NWS Columbia, SC

Home | Current Version | Previous Version | Text Only | Print | Product List | Glossary On
Versions: 1 2 3 4 5 6 7 8 9 10 11 12 13 14 15 16 17 18 19 20 21 22 23 24 25 26 27
000
ASUS42 KCAE 212010
RWRCAE
REGIONAL WEATHER ROUNDUP
NATIONAL WEATHER SERVICE COLUMBIA SC
400 PM EDT SAT MAY 21 2022

NOTE: "FAIR" INDICATES FEW OR NO CLOUDS BELOW 12,000 FEET WITH NO
SIGNIFICANT WEATHER AND/OR OBSTRUCTIONS TO VISIBILITY.

NOT ALL STATIONS ARE QUALITY CONTROLLED BY THE NATIONAL
WEATHER SERVICE. USE DATA WITH CAUTION...ESPECIALLY
DEWPOINT OBSERVATIONS.

SCZ001>059-115-116-135>137-GAZ040-063>065-077-212100-
...UPSTATE SOUTH CAROLINA...

CITY           SKY/WX    TMP DP  RH WIND       PRES   REMARKS
ANDERSON       PTSUNNY   88  65  46 SW13      30.11F
LIBERTY        PTSUNNY   88  65  47 SW8       30.12F
SPARTANBURG    PTSUNNY   86  61  42 SW10      30.12S
CLEMSON        PTSUNNY   85  67  54 VRB6      30.12F
GREENVILLE     PTSUNNY   90  61  37 SW10G22   30.12F
GREENWOOD      PTSUNNY   86  67  52 S6        30.12F
GREER          PTSUNNY   88  61  40 SW15G22   30.12F
ROCK HILL      PTSUNNY   71  67  87 CALM      30.17R
CHESTER        PTSUNNY   70  68  94 SE3       30.17S
LAURENS        PTSUNNY   88  70  55 S8        30.11F


...CENTRAL SOUTH CAROLINA...

CITY           SKY/WX    TMP DP  RH WIND       PRES   REMARKS
COLUMBIA APT   CLOUDY    75  70  84 VRB3      30.12F
COLUMBIA OWENS PTSUNNY   73  70  90 VRB3      30.14F
MCENTIRE ANGB  LGT RAIN  70  70 100 NE7       30.14F
ORANGEBURG     LGT RAIN  75  71  87 N12       30.15S FOG
SUMTER SHAW    CLOUDY    75  69  81 W10       30.15F
NEWBERRY       PTSUNNY   79  72  78 S9        30.16F
AIKEN          PTSUNNY   82  72  71 N9        30.13F THUNDER
BARNWELL       FAIR      86  66  51 W10G16    30.12F
CAMDEN         RAIN      72  70  94 CALM      30.18F
LANCASTER      RAIN      68  68 100 CALM      30.17S
WINNSBORO      PTSUNNY   73  68  83 SE6       30.16F


...EASTERN AND COASTAL SOUTH CAROLINA...

CITY           SKY/WX    TMP DP  RH WIND       PRES   REMARKS
MYRTLE BEACH   PTSUNNY   80  71  74 S13       30.18S
N MYRTLE BCH   PTSUNNY   79  71  76 SW15      30.17F
CONWAY         FAIR      81  70  69 S6        30.16S
MARION         FAIR      73  73 100 W3        30.17R
HARTSVILLE     TSTM      70  66  88 CALM      30.18S
FLORENCE       CLOUDY    78  72  81 W3        30.16R
DARLINGTON     RAIN      70  70 100 E6        30.19R
CHARLESTON APT PTSUNNY   85  69  58 S18       30.16S
MOUNT PLEASANT FAIR      84  73  70 S13G23    30.17F
WALTERBORO     PTSUNNY   86  70  58 S14G20    30.15F
BEAUFORT       CLOUDY    85  69  58 S12G28    30.16F
HILTON HEAD    PTSUNNY   81  70  69 S15G22    30.18F


...EASTERN GEORGIA...

CITY           SKY/WX    TMP DP  RH WIND       PRES   REMARKS
AUGUSTA BUSH F CLOUDY    85  65  51 SW12      30.10S
AUGUSTA DANIEL LGT RAIN  87  69  54 N5        30.11F
THOMSON        PTSUNNY   85  66  52 SW7       30.11F
WASHINGTON     FAIR      86  67  52 S10       30.12F
CLAXTON        FAIR      85  72  64 S8        30.15R
SYLVANIA       CLOUDY    90  66  45 SW5       30.12F
STATESBORO     CLOUDY    88  63  43 S13       30.13F
SAVANNAH       CLOUDY    81  67  62 S20       30.17S


...SOUTHERN NORTH CAROLINA...

CITY           SKY/WX    TMP DP  RH WIND       PRES   REMARKS
CHARLOTTE      TSTM      70  67  90 S22G35    30.17R
MONROE         LGT RAIN  68  66  93 SW8       30.15R
WADESBORO      CLOUDY    82  71  70 SE5       30.14R
ROCKINGHAM     CLOUDY    76  63  65 SE23G32   30.19R
RUTHERFORDTON  PTSUNNY   88  61  40 SW8       30.13S
ASHEVILLE      PTSUNNY   79  64  60 N9        30.17F

$$



USA.gov is the U.S. government's official web portal to all federal, state and local government web resources and services.